DW6101 Cognac FR current weather conditions

sailwx.info

Wind from 245

Air temperature 16.7° C
Dewpoint 16.0° C

Last reported at 2018-Jul-17 01:06 UTC.
Time now 2018-Jul-17 01:50 UTC

Location: N 45°42' W 000°20'.
View on Google Maps.

See reports from other nearby stations

  
Tides and Currents Weather Stations Pressure Air Temp Water Temp Dewpoint Dewpoint Depression Visibility Wind Speed Wind Dir Waves Ship Positions
date/time (UTC)wind fromknots sea level pressurealtimeterstation pressurevisibilityair tempwater tempwave heightnotes
2018-Jul-17 01:06 245 16.7
2018-Jul-17 01:01 245 16.7
2018-Jul-17 00:41 245 16.7
2018-Jul-17 00:36 245 16.7
2018-Jul-17 00:31 245 16.7
2018-Jul-17 00:16 245 17.2
2018-Jul-17 00:11 245 17.2
2018-Jul-17 00:06 245 17.2
2018-Jul-17 00:01 244 17.2
2018-Jul-16 23:46 247 17.2
2018-Jul-16 23:41 248 17.2
2018-Jul-16 23:36 244 0 gusting 0 17.2
2018-Jul-16 23:31 247 17.2
2018-Jul-16 23:16 247 17.2
2018-Jul-16 23:11 246 17.2
2018-Jul-16 23:06 243 17.2
2018-Jul-16 23:01 243 17.2
2018-Jul-16 22:46 218 17.2
2018-Jul-16 22:41 218 17.2
2018-Jul-16 22:36 218 17.2
2018-Jul-16 22:31 217 17.2
2018-Jul-16 22:16 217 0 gusting 1 17.8
2018-Jul-16 22:06 243 17.8
2018-Jul-16 22:01 238 17.8
2018-Jul-16 21:46 247 18.3
2018-Jul-16 21:41 249 18.3
2018-Jul-16 21:36 249 0 gusting 1 18.3
2018-Jul-16 21:31 336 18.3
2018-Jul-16 21:16 273 18.9
2018-Jul-16 21:11 272 18.9
2018-Jul-16 20:46 208 0 gusting 1 19.4
2018-Jul-16 20:36 242 0 gusting 2 19.4
2018-Jul-16 20:31 277 0 gusting 4 19.4
2018-Jul-16 20:16 305 0 gusting 2 19.4
2018-Jul-16 20:06 319 20.0
2018-Jul-16 19:41 355 0 gusting 1 21.1
2018-Jul-16 19:36 262 0 gusting 5 21.1
2018-Jul-16 19:16 269 21.7
2018-Jul-16 19:11 225 0 gusting 2 21.7
2018-Jul-16 19:01 250 1 gusting 5 22.2
2018-Jul-16 18:46 287 1 gusting 6 22.8
2018-Jul-16 18:41 314 0 gusting 6 23.3
2018-Jul-16 18:36 309 0 gusting 2 23.3
2018-Jul-16 18:31 256 0 gusting 6 23.3
2018-Jul-16 18:16 283 1 gusting 6 23.9
2018-Jul-16 18:11 249 1 gusting 6 23.9
2018-Jul-16 18:06 287 1 gusting 6 24.4
2018-Jul-16 18:01 264 1 gusting 6 24.4
2018-Jul-16 17:46 241 1 gusting 6 25.6
2018-Jul-16 17:41 253 2 gusting 6 25.6
2018-Jul-16 17:36 282 1 gusting 4 26.1
2018-Jul-16 17:31 271 0 gusting 6 26.1
2018-Jul-16 17:16 249 1 gusting 2 26.7
2018-Jul-16 17:11 252 1 gusting 4 26.7
2018-Jul-16 17:06 297 2 gusting 4 26.7
2018-Jul-16 17:01 307 0 gusting 6 27.2
2018-Jul-16 16:46 302 0 gusting 7 27.2
2018-Jul-16 16:31 329 1 gusting 8 27.2
2018-Jul-16 16:16 261 1 gusting 6 27.2
2018-Jul-16 16:11 275 2 gusting 7 27.2
2018-Jul-16 16:06 228 2 gusting 6 27.2
2018-Jul-16 16:01 324 0 gusting 11 27.8
2018-Jul-16 15:46 252 3 gusting 6 28.3
2018-Jul-16 15:31 270 2 gusting 8 28.3
2018-Jul-16 15:16 252 2 gusting 6 28.9
2018-Jul-16 15:06 246 2 gusting 6 29.4
2018-Jul-16 15:01 260 1 gusting 6 28.9
2018-Jul-16 14:46 241 1 gusting 5 28.9
2018-Jul-16 14:41 225 0 gusting 2 28.3
2018-Jul-16 14:16 242 1 gusting 2 27.2
2018-Jul-16 14:06 250 0 gusting 1 26.7
2018-Jul-16 14:01 221 0 gusting 6 26.7
2018-Jul-16 13:46 250 1 gusting 5 27.2
2018-Jul-16 13:41 228 2 gusting 7 27.8
2018-Jul-16 13:36 255 3 gusting 6 27.8
2018-Jul-16 13:06 207 1 gusting 6 27.2
2018-Jul-16 12:36 250 1 gusting 6 25.6
2018-Jul-16 12:31 212 1 gusting 6 25.6
2018-Jul-16 12:01 332 0 gusting 2 25.0
2018-Jul-16 11:46 257 1 gusting 2 25.0
2018-Jul-16 11:31 214 2 gusting 4 24.4
2018-Jul-16 11:16 232 1 gusting 2 23.9
2018-Jul-16 11:11 253 1 gusting 4 23.9
2018-Jul-16 11:01 254 0 gusting 5 23.3
2018-Jul-16 10:46 268 0 gusting 5 22.8
2018-Jul-16 10:41 243 0 gusting 4 22.8
2018-Jul-16 10:36 244 0 gusting 2 22.2
2018-Jul-16 10:31 228 1 gusting 2 22.2
2018-Jul-16 10:11 246 0 gusting 2 21.7
2018-Jul-16 10:06 237 0 gusting 2 21.1
2018-Jul-16 09:46 237 0 gusting 1 20.6
2018-Jul-16 09:36 186 0 gusting 1 20.6
2018-Jul-16 08:46 238 0 gusting 1 20.0
2018-Jul-16 08:41 225 0 gusting 2 20.0
2018-Jul-16 08:31 215 20.0
2018-Jul-16 08:16 205 0 gusting 4 19.4
2018-Jul-16 08:11 189 0 gusting 2 19.4
2018-Jul-16 08:06 174 0 gusting 2 19.4
2018-Jul-16 08:01 185 0 gusting 2 19.4
2018-Jul-16 07:46 169 0 gusting 2 18.9
2018-Jul-16 07:41 172 18.9
2018-Jul-16 07:36 151 0 gusting 2 18.9
2018-Jul-16 07:31 235 18.9
2018-Jul-16 07:16 250 18.9
2018-Jul-16 07:11 250 18.9
2018-Jul-16 07:01 250 18.3
2018-Jul-16 06:41 266 18.3
2018-Jul-16 06:31 266 18.3
2018-Jul-16 06:16 320 17.8
2018-Jul-16 06:11 057 17.8
2018-Jul-16 06:01 057 17.8
2018-Jul-16 05:46 071 17.8
2018-Jul-16 05:31 081 17.8
2018-Jul-16 02:16 086 0 gusting 1 18.3
2018-Jul-16 02:06 183 0 gusting 2 18.9
2018-Jul-16 02:01 248 0 gusting 5 18.9
2018-Jul-16 01:31 234 1 gusting 7 20.0
2018-Jul-16 01:16 269 4 gusting 10 20.6
2018-Jul-16 01:06 269 2 gusting 8 21.1
2018-Jul-16 01:01 238 1 gusting 7 21.1
2018-Jul-16 00:46 323 4 gusting 10 21.1
2018-Jul-16 00:41 318 2 gusting 7 21.1
2018-Jul-16 00:36 332 3 gusting 7 21.1
2018-Jul-16 00:31 288 2 gusting 12 21.1
2018-Jul-16 00:16 292 2 gusting 7 21.1
2018-Jul-16 00:11 264 1 gusting 6 21.1
2018-Jul-16 00:06 275 1 gusting 10 21.7
2018-Jul-16 00:01 271 3 gusting 12 21.7
2018-Jul-15 23:46 268 5 gusting 13 22.2
2018-Jul-15 23:41 275 4 gusting 11 22.2
2018-Jul-15 23:11 343 20.6
2018-Jul-15 23:01 350 20.6
2018-Jul-15 22:41 350 21.1
2018-Jul-15 22:36 350 21.1
2018-Jul-15 22:31 346 21.1
2018-Jul-15 22:16 346 21.7
2018-Jul-15 22:11 346 21.7
2018-Jul-15 21:31 344 22.2
2018-Jul-15 21:16 345 22.8
2018-Jul-15 21:11 345 22.8
2018-Jul-15 21:06 345 22.8
2018-Jul-15 21:01 345 23.3
2018-Jul-15 20:31 347 25.0
2018-Jul-15 20:16 345 0 gusting 1 25.6
2018-Jul-15 20:11 342 0 gusting 2 26.1
2018-Jul-15 20:06 001 0 gusting 2 26.1
2018-Jul-15 20:01 344 26.7
2018-Jul-15 19:46 007 1 gusting 2 27.2
2018-Jul-15 19:36 345 0 gusting 1 27.2
2018-Jul-15 19:31 347 27.8
2018-Jul-15 19:16 016 0 gusting 2 28.3
2018-Jul-15 19:06 306 0 gusting 1 28.3
2018-Jul-15 19:01 290 28.9
2018-Jul-15 18:46 285 0 gusting 2 29.4
2018-Jul-15 18:41 337 0 gusting 2 29.4
2018-Jul-15 18:31 317 0 gusting 4 30.0
2018-Jul-15 18:16 302 31.1
2018-Jul-15 18:06 302 31.1
2018-Jul-15 18:01 302 0 gusting 2 31.1
2018-Jul-15 17:46 242 0 gusting 2 31.7
2018-Jul-15 17:41 235 0 gusting 2 31.7
2018-Jul-15 17:36 222 1 gusting 2 31.7
2018-Jul-15 17:31 324 0 gusting 6 31.1
2018-Jul-15 17:06 246 30.6
2018-Jul-15 16:41 209 33.3
2018-Jul-15 16:36 181 33.3
2018-Jul-15 16:31 181 0 gusting 2 33.3
2018-Jul-15 16:16 263 33.3
2018-Jul-15 16:11 264 0 gusting 1 33.3
2018-Jul-15 16:06 270 0 gusting 1 33.3
2018-Jul-15 16:01 250 1 gusting 4 33.3
2018-Jul-15 15:46 209 33.3
2018-Jul-15 15:41 016 33.3
2018-Jul-15 15:31 257 0 gusting 2 33.3
2018-Jul-15 15:16 254 0 gusting 1 33.3
2018-Jul-15 15:11 122 33.3
2018-Jul-15 14:46 236 0 gusting 2 33.3
2018-Jul-15 14:41 295 0 gusting 2 33.3
2018-Jul-15 14:36 251 0 gusting 2 33.3
2018-Jul-15 14:31 340 0 gusting 5 33.3
2018-Jul-15 14:16 154 1 gusting 4 33.3
2018-Jul-15 14:01 240 1 gusting 5 32.8
2018-Jul-15 13:41 252 32.8
2018-Jul-15 13:36 254 0 gusting 1 32.8
2018-Jul-15 13:16 176 2 gusting 4 32.8
2018-Jul-15 13:06 041 1 gusting 2 32.8
2018-Jul-15 13:01 249 0 gusting 2 32.8
2018-Jul-15 12:46 255 1 gusting 2 32.8
2018-Jul-15 12:41 152 2 gusting 6 32.8
2018-Jul-15 12:31 181 4 gusting 7 32.8
2018-Jul-15 12:11 156 1 gusting 2 31.1
2018-Jul-15 12:06 168 1 gusting 2 31.1
2018-Jul-15 12:01 318 2 gusting 4 31.7
2018-Jul-15 11:46 198 0 gusting 2 32.2
2018-Jul-15 11:41 282 1 gusting 5 32.2
2018-Jul-15 11:36 110 1 gusting 4 32.2
2018-Jul-15 11:31 270 0 gusting 4 32.2
2018-Jul-15 11:16 152 32.2
2018-Jul-15 11:11 229 0 gusting 2 31.7
2018-Jul-15 11:01 163 0 gusting 2 31.7
2018-Jul-15 10:46 252 0 gusting 2 31.7
2018-Jul-15 10:41 105 0 gusting 1 31.7
2018-Jul-15 10:36 172 1 gusting 4 31.7
2018-Jul-15 10:11 183 1 gusting 2 31.1
2018-Jul-15 10:06 126 1 gusting 4 30.6
2018-Jul-15 09:46 239 0 gusting 2 30.6
2018-Jul-15 09:36 194 1 gusting 2 30.0
2018-Jul-15 09:31 088 1 gusting 2 30.0
2018-Jul-15 09:16 083 0 gusting 1 29.4
2018-Jul-15 09:11 157 0 gusting 1 29.4
2018-Jul-15 09:06 130 0 gusting 1 29.4
2018-Jul-15 09:01 076 0 gusting 1 28.9
2018-Jul-15 08:46 127 0 gusting 1 28.3
2018-Jul-15 08:36 269 0 gusting 1 27.8
2018-Jul-15 08:16 259 0 gusting 2 26.7
2018-Jul-15 08:01 084 0 gusting 2 26.1
2018-Jul-15 07:41 063 24.4
2018-Jul-15 07:36 124 24.4
2018-Jul-15 07:16 198 23.3
2018-Jul-15 07:11 187 22.8
2018-Jul-15 07:06 189 22.2
2018-Jul-15 06:46 285 20.6
2018-Jul-15 06:41 285 20.0
2018-Jul-15 06:36 285 19.4
2018-Jul-15 06:16 285 17.8
2018-Jul-15 06:06 285 16.7
2018-Jul-15 06:01 285 16.7
2018-Jul-15 05:46 285 16.1
2018-Jul-15 05:41 285 16.1
2018-Jul-15 05:36 285 15.6
2018-Jul-15 05:16 285 15.6
2018-Jul-15 05:11 285 15.0
2018-Jul-15 05:06 285 15.0
2018-Jul-15 05:01 285 15.0
2018-Jul-15 04:46 285 15.0
2018-Jul-15 04:41 285 15.0
2018-Jul-15 04:31 285 15.0
2018-Jul-15 04:11 285 15.0
2018-Jul-15 04:06 285 15.0
2018-Jul-15 04:01 285 15.0
2018-Jul-15 03:46 285 15.6
2018-Jul-15 03:41 285 15.6
2018-Jul-15 03:36 285 15.6
2018-Jul-15 03:16 285 15.6
2018-Jul-15 03:11 285 15.6
2018-Jul-15 03:01 286 15.6
2018-Jul-15 02:46 286 16.1
2018-Jul-15 02:41 286 16.1
2018-Jul-15 02:36 286 16.1
2018-Jul-15 02:31 286 16.1
2018-Jul-15 02:16 286 16.1
2018-Jul-15 02:06 286 16.1
2018-Jul-15 02:01 286 16.1
2018-Jul-15 01:46 286 16.7
2018-Jul-15 01:41 286 16.7
2018-Jul-15 01:36 286 16.7
2018-Jul-15 01:31 286 16.7
2018-Jul-15 01:16 286 16.7
2018-Jul-15 01:11 286 16.7
2018-Jul-15 01:01 286 16.7